Location: Newark
(43.6853°N, 70.3572°W)
Time: 10:20:15
(UTC+00:00)

Envisat - Visible Passes

Search period start: 21 August 2019 00:00
Search period end: 31 August 2019 00:00
Orbit: 764 x 766 km, 98.1° (Epoch: 20 August)

Date Brightness Start Highest point End Pass type
(mag) Time Alt. Az. Time Alt. Az. Time Alt. Az.
23 Aug 5.7 00:02:22 10° SW 00:06:11 21° W 00:10:02 10° NW visible
25 Aug 6.1 00:30:05 10° WSW 00:32:01 12° W 00:33:57 10° WNW visible
25 Aug 5.4 23:50:36 10° SSW 23:54:51 27° W 23:59:07 10° NW visible
28 Aug 5.9 00:17:40 10° SW 00:20:37 15° W 00:23:35 10° NW visible
